San Antonio Del Tachira Airport

Jump to: basic info | weather | frequencies | runways | comments

Related pages: nearby airports | nearby navaids | notams | map

Basic information (top)

Codes: SVZ SVSA
Location: lon 7.840830, lat -72.439697, elev 1,312 ft / 400 m msl
Status: medium_airport

Weather (top)

Current conditions (rec'd 2015/01/26 16:00Z):

SVSA 261600Z /////KT 9999 SCT020 32/17 Q1013

Airport forecast (rec'd 2015/01/20 12:00Z):

TAF TAF SVSA 201600Z 2012/2112 18008KT 8000 VCFG SCT020 TX32/19Z TN23/09Z 
      BECMG 2018/2023 14008KT 7000 VCDZ BKN020

Frequencies (top)

Verify before use: may be inaccurate or out of date.

GND: 121.9 MHz (GND)
TWR: 118.5 MHz (TWR)

Runways (top)

17/35: 6,135 x 131 ft (1,870 x 40 m) — paved — lighted

Latest comments (top)

No comments yet for San Antonio Del Tachira Airport

More... (top)

See also NOTAMs and nearby airports and navaids, or visit the San Antonio Del Tachira Airport page at the main OurAirports website..